IRS-P6 (RESOURCESAT-1)

Last updated on Sun Apr 12 2026 00:02:34 GMT+0000 (Coordinated Universal Time)

1 28051U 03046A 26101.57241170 .00000294 00000+0 11222-3 0 9991 2 28051 98.1985 141.3280 0064120 180.9938 340.8113 14.36137495170964
UTC large
Height (km)
Speed (km/s)
/
Latitude / Longitude
Inclination (degrees)
Orbital Period (minutes)
Azimuth
Elevation
Range (km)
Doppler Factor

Next 0 passes for location: London (51.5072 / 0.1276)

No passes found over London.
IRS-P6 (RESOURCESAT-1)